Location: Dennehotso
(36.8461°N, 109.8435°W)
Time: 23:20:06
(UTC+00:00)

Envisat - Pass Details

Date: 14 March 2021
Orbit: 764 x 766 km, 98.1° (Epoch: 12 April)

Event Time Altitude Azimuth Distance (km) Brightness Sun altitude
Rises 11:34:12 0° 36° (NE) 3,235 7.0 -24.0°
Reaches altitude 10° 11:37:58 10° 65° (ENE) 2,302 6.5 -23.3°
Maximum altitude 11:40:08 13° 91° (E) 2,117 6.2 -22.9°
Drops below altitude 10° 11:42:18 10° 116° (ESE) 2,295 6.1 -22.5°
Sets 11:46:01 0° 145° (SE) 3,215 6.5 -21.7°
